sat.trackr.live / text

‹ back to catalog

2025-012C

NORAD 62727 · 2025-012C

PAYLOAD ACTIVE UNKNOWN

§ Identity

Operator
Country
PRC
Launch date
2025-01-17
Launch site
JSC
Launch vehicle
Mass (kg)
RCS (m²)

External: N2YO · Heavens-Above · Gunter

§ Orbital elements

Epoch: 2026-09-22T23:11:53.443392Z

Period
94.16 min
Inclination
97.4190°
Eccentricity
0.0005699
Mean motion
15.29249590 rev/d
Perigee alt
474.1 km
Apogee alt
482.0 km
Semi-major
6,856.2 km
B*
2.7829e-4
RAAN
341.1525°
Arg perigee
280.0493°
Mean anomaly
80.0104°
Rev number
9,332

§ Raw data

2025-012C1 62727U 25012C   26265.96659078  .00007825  00000+0  27829-3 0  99972 62727  97.4190 341.1525 0005699 280.0493  80.0104 15.29249590 93328

JSON: /api/v1/satellites/62727 · /tle

For live sub-satellite position, see the globe view (requires WebGL).

§ Visibility from observer

Set your observer location to see the next 7 days of passes ≥ 10°. The values pass through the URL so the page stays shareable.

No JS? Fill the form by hand. The geolocation button needs JavaScript.